Torna al catalogo

STARLINK-34302

AttivoComunicazioniVLEO
NORAD 65216·PAYLOAD·🇺🇸 United States

Lanciato Aug 14, 2025 da Cape Canaveral Space Force Station

Loading…

Prossimi Passaggi (prossime 24 ore)

TLE

AggiornatoSource: CelesTrak SupGP

Epoca: Sep 14, 2026, 21:36 UTC

1 65216C 25176U   26257.90048611 -.00003095  00000+0 -91443-4 0  2572
2 65216  53.1587 349.8927 0001118  79.1920 347.5306 15.34390379    15

Traccia STARLINK-34302 in tempo reale con AllMySat

Download on the App Store